Starlink 11373

operational
NORAD ID: 61582 Int'l Des: 2024-187 Owner: SPXS Country: US Constellation: starlink
LEOCIRCULAR

About Starlink 11373

Description loading...

Live Position

Loading 3D Globe...

Upcoming Passes

Altitude History

Altitude vs Time

uPlot chart will show altitude changes over time

Two-Line Element Set

1 61582U 24187J 25259.79282299 -.00003060 00000-0 -20434-4 0 9993
2 61582 53.1586 73.8112 0000831 72.1051 288.0058 15.69689887 53435
Epoch: Sep 16, 2025 • Age: 31 hours

Current Status

Altitude 360.5 km
Velocity 7.69 km/s
Sub-Earth Point 3.19°N, 147.3°W
Launch Date Oct 18, 2024
Age 0.9 years
Type internet

Technical Details

Classification Payload
Mass 960.00 kg
Dry Mass 910.00 kg
Total Mass 960.00 kg
Length 0.30 m
Diameter 4.10 m
Span 29.00 m
Shape Box + pan
Manufacturer SPXS
Bus Type Starlink V2MD
Phase Status In Orbit
Owner/State SPXS/US

Large Constellations

Loading constellations...